User: anonymous   Login
Location: Wawayanda State Park
(41.1833°N, 74.4333°W)
Time: 10:24:58
(UTC-04:00)
Language:

RESURS DK-1 - Orbit

View from above orbital plane
View from above orbital plane
View from above satellite
View from above satellite

Ground track
Ground track

The orbit data is extracted from the following two-line orbital elements,

1 29228U 06021A   14303.09096306  .00001883  00000-0  15502-3 0  3772
2 29228 069.9388 021.6645 0005004 338.1383 096.4836 15.00925743463814
Epoch (UTC): 30 October 2014 02:10:59
Eccentricity: 0.0005004
inclination: 69.9388°
perigee height: 560 km
apogee height: 567 km
right ascension of ascending node: 21.6645°
argument of perigee: 338.1383°
revolutions per day: 15.00925743
mean anomaly at epoch: 96.4836°
orbit number at epoch: 46381

The dashed part of the orbit path shows where the satellite is in the earth's shadow,  

DLR